Вернуться в каталог

CAPELLA-17

ACADIA

АктивенНаукаSSO
NORAD 64583·PAYLOAD·🇺🇸 United States

Запущен Jun 23, 2025 с Vandenberg Space Force Base

Loading…

Ближайшие Пролёты (ближайшие 24 часа)

TLE

СвежийSource: Space-Track

Эпоха: Sep 14, 2026, 17:58 UTC

1 64583U 25135BH  26257.74916076  .00004910  00000-0  48706-3 0  9996
2 64583  97.7756  10.1047 0006208  65.2528 294.9337 14.92214573 67206

Отслеживайте CAPELLA-17 в реальном времени с AllMySat

Download on the App Store